GW4987 Weather Reports


Display with metric or nautical units.
time (UTC)temp
F
wind
direction
speed
MPH
gust
MPH
rain 1hr
in
rain 24hr
in
rain mn
in
humidity
%
barometer
mb
20260506112010 40 252 4.0 4.0 0.00 0.00 0.00 65 1017.2
20260506111547 39 255 5.0 5.0 0.00 0.00 0.00 66 1017.3
20260506111011 38 253 3.0 3.0 0.00 0.00 0.00 67 1017.2
20260506110547 38 185 2.0 2.0 0.00 0.00 0.00 66 1017.5
20260506110047 39 340 0.0 2.0 0.00 0.00 0.00 66 1017.3
20260506105547 38 180 0.0 0.0 0.00 0.00 0.00 68 1017.2
20260506105010 38 180 0.0 0.0 0.00 0.00 0.00 68 1017.3
20260506104546 37 211 3.0 3.0 0.00 0.00 0.00 69 1017.1
20260506104047 37 125 3.0 5.0 0.00 0.00 0.00 67 1017.1
20260506102047 40 237 3.0 4.0 0.00 0.00 0.00 63 1017.0
20260506101547 40 237 3.0 4.0 0.00 0.00 0.00 63 1017.1
20260506101047 40 251 4.0 5.0 0.00 0.00 0.00 63 1017.1
20260506100547 40 261 5.0 5.0 0.00 0.00 0.00 63 1017.1
20260506100009 40 227 3.0 4.0 0.00 0.00 0.00 62 1017.0
20260506095547 41 235 4.0 5.0 0.00 0.00 0.00 61 1017.2
20260506095046 41 249 4.0 4.0 0.00 0.00 0.00 60 1017.0
20260506094509 42 225 4.0 5.0 0.00 0.00 0.00 59 1017.2
20260506092546 41 217 3.0 4.0 0.00 0.00 0.00 61 1017.1
20260506092046 41 217 3.0 4.0 0.00 0.00 0.00 61 1016.8
20260506091547 41 217 3.0 4.0 0.00 0.00 0.00 61 1016.7
20260506091009 41 217 3.0 4.0 0.00 0.00 0.00 61 1016.7
20260506090546 41 217 3.0 4.0 0.00 0.00 0.00 61 1016.7
20260506090047 42 264 5.0 5.0 0.00 0.00 0.00 58 1016.7
20260506085546 42 264 5.0 5.0 0.00 0.00 0.00 58 1016.6
20260506085009 42 264 5.0 5.0 0.00 0.00 0.00 58 1017.0
20260506084547 42 264 5.0 5.0 0.00 0.00 0.00 58 1016.8
20260506084047 42 264 5.0 5.0 0.00 0.00 0.00 58 1016.6
20260506083547 42 265 4.0 7.0 0.00 0.00 0.00 59 1016.7
20260506083047 42 268 6.0 7.0 0.00 0.00 0.00 59 1016.8
20260506082546 41 255 5.0 5.0 0.00 0.00 0.00 59 1016.5
20260506082009 41 255 5.0 5.0 0.00 0.00 0.00 59 1016.4
20260506081547 41 255 5.0 5.0 0.00 0.00 0.00 59 1016.7
20260506080510 42 241 3.0 4.0 0.00 0.00 0.00 56 1016.7
20260506073010 42 241 3.0 4.0 0.00 0.00 0.00 56 1016.8
20260506072546 42 241 3.0 4.0 0.00 0.00 0.00 56 1016.8
20260506072047 42 241 3.0 4.0 0.00 0.00 0.00 56 1016.7
20260506071510 42 241 3.0 4.0 0.00 0.00 0.00 56 1016.6
20260506071010 42 241 3.0 4.0 0.00 0.00 0.00 56 1016.6
20260506070514 43 257 3.0 3.0 0.00 0.00 0.00 56 1016.7
20260506061010 44 263 4.0 5.0 0.00 0.00 0.00 51 1016.3
20260506060547 44 263 4.0 5.0 0.00 0.00 0.00 51 1016.5
20260506051047 44 247 4.0 5.0 0.00 0.00 0.00 51 1016.3
20260506050547 45 249 4.0 4.0 0.00 0.00 0.00 51 1016.2
20260506045046 45 247 3.0 3.0 0.00 0.00 0.00 51 1016.1
20260506044510 45 247 3.0 3.0 0.00 0.00 0.00 51 1016.3
20260506044009 45 247 3.0 3.0 0.00 0.00 0.00 51 1016.0
20260506043546 45 256 3.0 3.0 0.00 0.00 0.00 51 1016.1
20260506043009 45 237 3.0 3.0 0.00 0.00 0.00 51 1016.1
20260506042546 45 230 3.0 5.0 0.00 0.00 0.00 51 1016.0
20260506042047 45 212 3.0 4.0 0.00 0.00 0.00 52 1016.0
20260506041547 45 231 3.0 3.0 0.00 0.00 0.00 52 1015.8
20260506035510 46 260 3.0 4.0 0.00 0.00 0.00 51 1016.0
20260506035010 46 252 3.0 4.0 0.00 0.00 0.00 50 1015.9
20260506034547 46 228 4.0 4.0 0.00 0.00 0.00 50 1015.7
20260506034047 46 210 3.0 3.0 0.00 0.00 0.00 50 1015.8
20260506033547 46 253 3.0 3.0 0.00 0.00 0.00 50 1015.7
20260506033047 46 220 2.0 2.0 0.00 0.00 0.00 50 1015.6
20260506031046 46 224 3.0 6.0 0.00 0.00 0.00 50 1015.3
20260506030510 47 199 3.0 4.0 0.00 0.00 0.00 49 1015.3
20260506030010 47 191 3.0 4.0 0.00 0.00 0.00 49 1015.2
20260506025546 47 174 3.0 3.0 0.00 0.00 0.00 49 1015.3
20260506025010 47 176 3.0 5.0 0.00 0.00 0.00 48 1015.0
20260506024547 47 216 5.0 7.0 0.00 0.00 0.00 48 1015.0
20260506024046 48 195 2.0 5.0 0.00 0.00 0.00 47 1014.7
20260506023547 49 224 9.0 10.0 0.00 0.00 0.00 44 1014.7
20260506023010 49 224 9.0 10.0 0.00 0.00 0.00 44 1014.6
20260506022547 49 224 9.0 10.0 0.00 0.00 0.00 44 1014.6
20260506022047 49 224 9.0 10.0 0.00 0.00 0.00 44 1014.6
20260506021509 49 224 9.0 10.0 0.00 0.00 0.00 44 1014.3
20260506021009 49 224 9.0 10.0 0.00 0.00 0.00 44 1014.3
20260506020546 52 226 7.0 11.0 0.00 0.00 0.00 41 1014.4
20260506020009 52 226 7.0 11.0 0.00 0.00 0.00 41 1014.3
20260506015546 52 226 7.0 11.0 0.00 0.00 0.00 41 1014.2
20260506015047 52 226 7.0 11.0 0.00 0.00 0.00 41 1014.1
20260506014546 52 226 7.0 11.0 0.00 0.00 0.00 41 1014.0
20260506014009 52 226 7.0 11.0 0.00 0.00 0.00 41 1014.1
20260506013546 52 226 7.0 11.0 0.00 0.00 0.00 41 1014.0
20260506010546 53 217 4.0 5.0 0.00 0.00 0.00 40 1013.9
20260506010046 53 217 4.0 5.0 0.00 0.00 0.00 40 1013.8
20260506005547 53 217 4.0 5.0 0.00 0.00 0.00 40 1013.9
20260506005046 53 217 4.0 5.0 0.00 0.00 0.00 40 1013.9
20260506004546 53 217 4.0 5.0 0.00 0.00 0.00 40 1013.9
20260506004047 53 217 4.0 5.0 0.00 0.00 0.00 40 1013.8
20260506003547 53 217 4.0 5.0 0.00 0.00 0.00 40 1013.9
20260506003010 53 217 4.0 5.0 0.00 0.00 0.00 40 1013.7
20260506002547 53 217 4.0 5.0 0.00 0.00 0.00 40 1013.8
20260506002046 53 217 4.0 5.0 0.00 0.00 0.00 40 1013.8
20260506001546 53 217 4.0 5.0 0.00 0.00 0.00 40 1013.5
20260506001047 53 217 4.0 5.0 0.00 0.00 0.00 40 1013.5
20260506000547 53 235 11.0 18.0 0.00 0.00 0.00 40 1013.6
20260506000010 52 202 14.0 20.0 0.00 0.00 0.00 40 1013.4
20260505235547 53 218 9.0 16.0 0.00 0.00 0.00 39 1013.5
20260505235047 52 206 11.0 19.0 0.00 0.00 0.00 40 1013.5
20260505234510 53 178 13.0 20.0 0.00 0.00 0.00 39 1013.4
20260505234010 53 205 17.0 21.0 0.00 0.00 0.00 39 1013.5
20260505233547 54 150 8.0 10.0 0.00 0.00 0.00 39 1013.1
20260505233010 53 217 12.0 23.0 0.00 0.00 0.00 40 1013.2
20260505232546 53 214 4.0 21.0 0.00 0.00 0.00 40 1013.0
20260505232046 54 213 5.0 18.0 0.00 0.00 0.00 39 1013.1
20260505231546 54 223 7.0 13.0 0.00 0.00 0.00 38 1013.1
20260505231010 54 208 11.0 28.0 0.00 0.00 0.00 37 1013.0
20260505230547 55 211 16.0 17.0 0.00 0.00 0.00 34 1013.0
20260505230047 55 211 16.0 17.0 0.00 0.00 0.00 34 1013.0
20260505224047 57 188 13.0 22.0 0.00 0.00 0.00 33 1013.1
20260505223547 57 188 13.0 22.0 0.00 0.00 0.00 33 1013.3
20260505223047 54 225 10.0 11.0 0.00 0.00 0.00 35 1013.1
20260505222547 55 195 14.0 26.0 0.00 0.00 0.00 34 1013.5
20260505222011 55 264 18.0 19.0 0.00 0.00 0.00 34 1013.4
20260505221547 56 196 15.0 26.0 0.00 0.00 0.00 32 1013.3
20260505221047 57 217 6.0 12.0 0.00 0.00 0.00 33 1013.4
20260505220511 56 200 16.0 20.0 0.00 0.00 0.00 33 1013.6
20260505214546 56 214 13.0 14.0 0.00 0.00 0.00 36 1013.6
20260505214046 56 214 13.0 14.0 0.00 0.00 0.00 36 1013.6
20260505213547 56 214 13.0 14.0 0.00 0.00 0.00 36 1013.3
20260505213011 56 214 13.0 14.0 0.00 0.00 0.00 36 1013.8
20260505212546 55 196 13.0 19.0 0.00 0.00 0.00 38 1013.8
20260505212046 55 196 13.0 19.0 0.00 0.00 0.00 38 1013.8
20260505211511 57 189 6.0 13.0 0.00 0.00 0.00 39 1013.9
20260505211010 56 223 9.0 10.0 0.00 0.00 0.00 41 1013.8
20260505210546 56 223 12.0 17.0 0.00 0.00 0.00 41 1013.8
20260505210046 53 170 8.0 11.0 0.00 0.00 0.00 48 1013.8
20260505205546 53 170 8.0 11.0 0.00 0.00 0.00 48 1013.9
20260505205046 53 171 8.0 18.0 0.00 0.00 0.00 49 1014.0
20260505204546 54 174 14.0 25.0 0.00 0.00 0.00 47 1013.8
20260505204010 56 221 14.0 18.0 0.00 0.00 0.00 45 1013.9
20260505203547 54 200 16.0 19.0 0.00 0.00 0.00 47 1013.8
20260505202010 52 128 5.0 14.0 0.00 0.00 0.00 46 1014.2
20260505201547 52 128 5.0 14.0 0.00 0.00 0.00 46 1014.2
20260505201011 52 128 5.0 14.0 0.00 0.00 0.00 46 1014.2
20260505195011 52 128 5.0 14.0 0.00 0.00 0.00 46 1014.4
20260505194546 52 128 5.0 14.0 0.00 0.00 0.00 46 1014.4
20260505194046 52 128 5.0 14.0 0.00 0.00 0.00 46 1014.3
20260505192046 52 173 13.0 19.0 0.00 0.00 0.00 46 1014.6
20260505191546 52 171 15.0 15.0 0.00 0.00 0.00 49 1014.4
20260505191047 53 221 9.0 16.0 0.00 0.00 0.00 50 1014.5
20260505185047 51 262 10.0 11.0 0.00 0.00 0.00 57 1014.5
20260505184511 51 262 10.0 11.0 0.00 0.00 0.00 57 1014.4
20260505184047 51 193 11.0 13.0 0.00 0.00 0.00 54 1014.4
20260505183546 51 193 11.0 13.0 0.00 0.00 0.00 54 1014.5
20260505183010 53 222 10.0 12.0 0.00 0.00 0.00 50 1014.6
20260505182546 53 222 10.0 16.0 0.00 0.00 0.00 50 1014.3
20260505182046 54 132 4.0 11.0 0.00 0.00 0.00 48 1014.3
20260505181547 54 179 5.0 11.0 0.00 0.00 0.00 48 1014.3
20260505175546 52 141 12.0 14.0 0.00 0.00 0.00 51 1014.3
20260505175010 53 213 6.0 21.0 0.00 0.00 0.00 50 1014.2
20260505174547 54 157 9.0 18.0 0.00 0.00 0.00 47 1014.2
20260505174011 53 153 11.0 21.0 0.00 0.00 0.00 50 1014.3
20260505173547 53 170 12.0 15.0 0.00 0.00 0.00 51 1014.3
20260505173047 50 203 14.0 18.0 0.00 0.00 0.00 55 1014.2
20260505171546 51 135 10.0 16.0 0.00 0.00 0.00 51 1014.2
20260505171046 51 121 9.0 15.0 0.00 0.00 0.00 52 1014.2
20260505170547 54 196 16.0 19.0 0.00 0.00 0.00 49 1014.2
20260505170011 54 137 5.0 13.0 0.00 0.00 0.00 50 1014.1
20260505165503 55 164 13.0 13.0 0.00 0.00 0.00 47 1014.1
20260505165046 53 164 5.0 8.0 0.00 0.00 0.00 52 1014.0
20260505164546 55 175 13.0 17.0 0.00 0.00 0.00 49 1014.1
20260505164047 53 129 13.0 17.0 0.00 0.00 0.00 51 1014.1
20260505163547 55 139 9.0 18.0 0.00 0.00 0.00 48 1014.2
20260505163010 52 163 7.0 9.0 0.00 0.00 0.00 54 1014.1
20260505162547 51 144 5.0 14.0 0.00 0.00 0.00 55 1014.1
20260505162046 50 134 5.0 18.0 0.00 0.00 0.00 56 1014.1
20260505161511 51 191 5.0 15.0 0.00 0.00 0.00 54 1014.4
20260505161010 52 281 4.0 9.0 0.00 0.00 0.00 55 1014.3
20260505160546 52 220 3.0 10.0 0.00 0.00 0.00 56 1014.4
20260505153046 50 128 11.0 20.0 0.00 0.00 0.00 60 1014.1
20260505152511 51 136 13.0 15.0 0.00 0.00 0.00 58 1014.1
20260505152011 51 135 7.0 13.0 0.00 0.00 0.00 57 1014.2
20260505151547 51 126 8.0 10.0 0.00 0.00 0.00 57 1014.1
20260505151010 50 107 4.0 6.0 0.00 0.00 0.00 57 1014.0
20260505150546 50 116 7.0 11.0 0.00 0.00 0.00 59 1014.2
20260505140546 46 255 3.0 11.0 0.00 0.00 0.00 64 1014.0
20260505125010 45 106 3.0 7.0 0.00 0.00 0.00 61 1013.8
20260505124547 45 125 5.0 7.0 0.00 0.00 0.00 61 1013.8
20260505124046 45 79 2.0 7.0 0.00 0.00 0.00 60 1013.6
20260505123527 45 128 6.0 8.0 0.00 0.00 0.00 60 1013.7
20260505123047 45 122 5.0 7.0 0.00 0.00 0.00 60 1013.7
20260505122546 45 98 3.0 9.0 0.00 0.00 0.00 60 1013.5
20260505122046 45 97 2.0 5.0 0.00 0.00 0.00 60 1013.7
20260505121547 45 168 4.0 7.0 0.00 0.00 0.00 60 1013.6
20260505121047 44 165 3.0 7.0 0.00 0.00 0.00 61 1013.7
20260505120510 44 186 2.0 5.0 0.00 0.00 0.00 63 1013.5
20260505120010 44 154 0.0 4.0 0.00 0.00 0.00 62 1013.3
20260505115547 44 164 3.0 7.0 0.00 0.00 0.00 61 1013.6
20260505115011 44 132 4.0 6.0 0.00 0.00 0.00 62 1013.7
20260505114546 44 113 3.0 9.0 0.00 0.00 0.00 62 1013.7
20260505114046 44 186 3.0 5.0 0.00 0.00 0.00 64 1013.8
20260505113547 44 99 3.0 6.0 0.00 0.00 0.00 64 1013.8
20260505113010 43 108 3.0 3.0 0.00 0.00 0.00 66 1013.8
20260505112546 44 160 2.0 4.0 0.00 0.00 0.00 65 1013.8